STARLINK-1893, 46786

Orbit data source: Space-Track

STARLINK-1893, 46786 is a payload satellite owned by SpaceX/Seattle (US) in LEO that was launched on Sat, 24 Oct 2020 UTC via an FALCON 9 launch vehicle from the Air Force Eastern Test Range (AFETR). Payload-class satellites include a variety of spacecraft equipped with specific instruments for various scientific and technological missions. These include communications satellites like Starlink; space stations such as the ISS; scientific satellites like the Hubble; Earth observation satellites from companies like Planet Labs, Umbra, and HawkEye 360; GPS; miniature CubeSats for education and research; and military/defense satellites.

Loading next visibility...
Identifier
46786, 2020-074AZ
Orbit
LEO
Country
Flag of USUS
Related business
Manufacturer
SpaceX/Seattle
Mission
Partially operational Commercial Communications
Bus & Motor
STARLINK, Unknown motor
Mass
260 kg wet, ~248 kg dry
Launch date (UTC)
2020-10-24 (6 years ago)
Launch vehicle
FALCON 9
Launch site
Air Force Eastern Test Range (AFETR)
Object type
Payload
Rocket body
Debris
Shape & HBR
Box + 1 Pan, 10.1 m
Radar Cross Section
13.562 m², Large (>1 m²)

Expand to show TLE details & history
Last TLE update: 3 days ago

TLE from 3 days ago
0 STARLINK-1893
1 46786U 20074AZ  26170.87647016  .00088033  00000-0  64997-3 0  9999
2 46786  53.0430 126.6093 0001763 112.0596 248.0609 15.72277466313436
Epoch: 2026-06-19T21:02Z
TLE epoch observation values (Epoch: 2026-06-19T21:02:07.021Z)
Latitude
-0.00003°
Longitude
-97.01913°
Altitude
353.736 km
Speed
7.698 km/s
True Right ascension
08h 26m 26s
True Declination
0° 00' 00"
Sunlit
Object was in daylight at epoch
Visualization orbit readout
Latitude
Unknown
Longitude
Unknown
Altitude
Unknown
Speed
Unknown
Apparent Right ascension
Unknown
Apparent Declination
Unknown
Sunlit
N/A
Visualization observer readout
Local Sidereal Time
21:38:45
Azimuth
Unknown
Elevation
Unknown
Doppler factor
Unknown
Orbital elements
Apogee altitude
353.856 km
Perigee altitude
351.483 km
Semi-major axis
6,730.807 km
Eccentricity
0.00018
Inclination
53.043°
RAAN
126.6093°
Arg. of periapsis
112.0596°
True anomaly
248.04216°
Mean anomaly
248.0609°
Eccentric anomaly
248.05153°
Mean motion
3.93045 °/min
Orbital period
91.59 mins
BSTAR
0.00064997
Loading maneuver chart data...
Computing Atmospheric mass density...

Documentation

Showing up to 5 results
|